Regional Weather Roundup
Issued by NWS

Home | Current Version | Previous Version | Text Only | Print | Product List | Glossary On
Versions: 1 2 3 4 5 6 7 8 9 10 11 12 13 14 15 16 17 18 19 20 21 22 23 24 25 26 27 28 29 30 31 32 33 34 35 36 37 38 39 40 41 42 43 44 45 46 47 48 49 50
000
ASUS43 KMKX 300421
RWRWI

WISCONSIN REGIONAL WEATHER ROUNDUP
NATIONAL WEATHER SERVICE MILWAUKEE/SULLIVAN WI
1100 PM CDT MON SEP 29 2014

NOTE: "FAIR" INDICATES FEW OR NO CLOUDS BELOW 12,000 FEET WITH NO
SIGNIFICANT WEATHER AND/OR OBSTRUCTIONS TO VISIBILITY.

WIZ001-002-006>008-014>016-023>028-300500-
NORTHWEST WISCONSIN

CITY           SKY/WX    TMP DP  RH WIND       PRES   REMARKS
SUPERIOR ARPT  CLOUDY    45  40  81 E9        30.19S
ASHLAND        CLOUDY    44  39  82 NE8       30.20F
HAYWARD        CLOUDY    42  39  89 NE8G17    30.16F
SIREN          CLOUDY    42  38  83 E7        30.15S
CUMBERLAND     CLOUDY    41  37  87 NE10      30.13F
RICE LAKE      CLOUDY    42  38  83 NE9       30.15F
CHETEK         CLOUDY    42  38  86 N9        30.15R
LADYSMITH      CLOUDY    41  37  86 NE12      30.16S
EAU CLAIRE     MOCLDY    44  38  79 NE10G20   30.11S
MENOMONIE      CLEAR     44  38  82 NE8       30.13R
NEW RICHMOND   CLEAR     42  40  92 E5        30.13S
OSCEOLA        CLEAR     43  42  95 E5        30.16S
$$

WIZ003>005-009-010-017-018-300500-
NORTH CENTRAL WISCONSIN

CITY           SKY/WX    TMP DP  RH WIND       PRES   REMARKS
MANITOWISH WTR CLOUDY    37  37 100 N8        30.16S WCI  31
ARBOR VITAE    CLOUDY    39  37  90 NE6       30.15S WCI  35
WOODRUFF       CLOUDY    39  37  90 NE6       30.15S WCI  35
RHINELANDER    CLOUDY    38  35  89 NE7       30.15F WCI  33
EAGLE RIVER    CLOUDY    37  36  99 N8        30.14S WCI  30
LAND O LAKES   CLOUDY    37  37  98 N7        30.16S FOG     WCI  32
PHILLIPS       CLOUDY    38  35  90 NE13G21   30.15S WCI  30
TOMAHAWK       CLOUDY    39  36  87 NE8       30.15S WCI  34
MEDFORD        CLOUDY    40  37  88 NE8       30.12F WCI  35
MERRILL        CLOUDY    41  38  87 NE8       30.13F
$$

WIZ029-030-035-036-043>047-300500-
CENTRAL WISCONSIN

CITY           SKY/WX    TMP DP  RH WIND       PRES   REMARKS
WAUSAU         CLOUDY    42  36  79 N8G18     30.12S
MOSINEE        CLOUDY    41  37  87 N9G16     30.14R
MARSHFIELD     CLOUDY    45  39  79 NE9       30.10F
STEVENS POINT  CLOUDY    42  37  82 NE10      30.12R
WAUPACA        CLOUDY    48  41  76 NE7       30.10F
WAUTOMA        NOT AVBL
WISC RAPIDS    CLOUDY    47  40  76 N16       30.11S
CAMP DOUGLAS   MOCLDY    45  45 100 NE5       30.09R
$$

WIZ011>013-019>022-031-037>040-048>050-300500-
NORTHEAST WISCONSIN

CITY           SKY/WX    TMP DP  RH WIND       PRES   REMARKS
ANTIGO         CLOUDY    38  37  94 N10       30.13S WCI  32
SHAWANO        CLOUDY    46  39  77 N12G18    30.12S
OCONTO         CLOUDY    43  38  82 N8G17     30.11S
STURGEON BAY   NOT AVBL
GREEN BAY      CLOUDY    45  40  82 N12       30.10S
MANITOWOC      NOT AVBL
APPLETON       CLOUDY    46  37  71 N15       30.09S
CLINTONVILLE   CLOUDY    45  37  76 N9        30.11S
OSHKOSH        CLOUDY    49  42  77 N12       30.08S
$$

WIZ032>034-041-042-053>061-300500-
SOUTHWEST WISCONSIN

CITY           SKY/WX    TMP DP  RH WIND       PRES   REMARKS
LA CROSSE      CLEAR     52  46  80 NE6       30.08S
SPARTA         CLEAR     44  43  96 N3        30.09F
VIROQUA        CLEAR     48  47  97 NE3       30.07R
BOSCOBEL       MOCLDY    54  48  80 NE5       30.06S
PRAIRIE DU CHI CLOUDY    55  47  73 NE6       30.05S
PLATTEVILLE    CLOUDY    54  50  88 NE10      30.04F
$$

WIZ056-057-062-063-064-067-068-300500-
SOUTH CENTRAL WISCONSIN

CITY           SKY/WX    TMP DP  RH WIND       PRES   REMARKS
REEDSBURG      CLOUDY    50  46  84 NE8       30.07S
BARABOO/DELLS  CLOUDY    50  46  86 NE7       30.07S
LONE ROCK      CLOUDY    58  48  69 NE7       30.06S
MINERAL POINT  CLOUDY    54  50  87 NE10      30.05S
MADISON        CLOUDY    50  47  89 NE12      30.06S
MIDDLETON      CLOUDY    52  49  91 NE14      30.06S
WATERTOWN      CLOUDY    49  48  97 NE10G17   30.05F
MONROE         CLOUDY    50  50 100 N13G18    30.03F
JANESVILLE     CLOUDY    54  46  76 NE13      30.03F
$$

WIZ051-052-058>065-066-070>072-300500-
SOUTHEAST WISCONSIN

CITY           SKY/WX    TMP DP  RH WIND       PRES   REMARKS
MILWAUKEE      CLOUDY    50  45  83 N15       30.05S
WAUKESHA       CLOUDY    46  45  93 N8        30.06S
MILWAUKEE/TIMM CLOUDY    46  45  93 N9        30.06S
RACINE         CLOUDY    52  46  80 N14G22    30.05S
BURLINGTON     CLOUDY    49  47  91 N8        30.04S
KENOSHA        CLOUDY    52  47  83 N8        30.04S
FOND DU LAC    CLOUDY    49  43  80 N17G23    30.08S
SHEBOYGAN      CLOUDY    47  42  83 NE8       30.07S
WEST BEND      CLOUDY    46  43  87 N7        30.06S
JUNEAU         CLOUDY    48  46  90 N10       30.07S
$$

LSZ147-162-300500-
LAKE SUPERIOR

STATION/POSITION TIME  TEMP    WIND        PRES    WAVE
                       AIR SEA DIR/SP/G            HT/PER
                 (UTC) (F)     (DEG/KT/KT) (MB)    (FT/S)
W MID LAKE BUOY  0350   44 50   30/ 14/ 17 1023.5S   4/ 7
DEVILS ISLAND    0400   45      60/ 19/ 24 1023.4F
SAXON HARBOR     0300   45      80/  5/ 11 1022.4F
$$

LMZ867-665-643>646-300500-
LAKE MICHIGAN

STATION/POSITION TIME  TEMP    WIND        PRES    WAVE
                       AIR SEA DIR/SP/G            HT/PER
                 (UTC) (F)     (DEG/KT/KT) (MB)    (FT/S)
CHAMBERS ISLAND  0300   47     340/ 21/ 27 1019.3S
S GREEN BAY BUOY 0200   48                 1020.3R
N MID LAKE BUOY  0350   47 58  350/ 21/ 25 1017.4F   5/ 6
NORTHPORT PIER   0300   47     350/ 20     1019.0S
KEWAUNEE LAKESHO 0400   45     360/  9/ 13 1017.7F
SHEBOYGAN LAKESH 0400   48 55  360/ 20/ 23 1018.5R
PORT WASHINGTON  0300           10/  6/ 13 1018.3F
ATWATER BUOY     0400   53      10/ 19/ 25 1018.4R
MILWAUKEE LAKESH 0400          360/ 15/ 21   N/A
S MID LAKE BUOY  0350   54 63  350/ 23/ 29 1015.8S   8/ 7
KENOSHA   LAKESH 0400          360/ 19/ 23 1016.6S
$$

TC  - TEMPERATURE IN CELSIUS
VSB - VISIBILITY IN STATUTE MILES
WCI - WIND CHILL INDEX
HX  - HEAT INDEX



USA.gov is the U.S. government's official web portal to all federal, state and local government web resources and services.